This is the latest recevied weather packets stored in our database for station/object KC1HBM. If no packets are shown the sender has not sent any weather packets the latest 1 day(s).
| Time | Temp. | Humidity | Pressure | Rain* | Wind** | Luminosity | Snow |
|---|---|---|---|---|---|---|---|
| 1778025645 | 17.22° C | 71% | 1004.7 hPa | 0 mm | 0.89 m/s, 338° | 0 W/m² | - |
| 1778025343 | 16.67° C | 72% | 1004.4 hPa | 0 mm | 0.89 m/s, 306° | 0 W/m² | - |
| 1778025040 | 16.67° C | 73% | 1004.3 hPa | 0 mm | 0 m/s | 0 W/m² | - |
| 1778024737 | 16.67° C | 73% | 1004.3 hPa | 0 mm | 0 m/s | 0 W/m² | - |
| 1778024433 | 17.22° C | 72% | 1004.4 hPa | 0 mm | 0 m/s | 1 W/m² | - |
| 1778024131 | 17.22° C | 72% | 1004.3 hPa | 0 mm | 0 m/s | 2 W/m² | - |
| 1778023828 | 17.78° C | 70% | 1004.2 hPa | 0 mm | 0 m/s | 2 W/m² | - |
| 1778023526 | 16.67° C | 71% | 1004.3 hPa | 0 mm | 0 m/s | 4 W/m² | - |
| 1778023223 | 16.11° C | 73% | 1004.6 hPa | 0 mm | 0 m/s | 4 W/m² | - |
| 1778022920 | 16.11° C | 74% | 1004.8 hPa | 0 mm | 0 m/s | 2 W/m² | - |
| 1778022619 | 16.11° C | 73% | 1004.7 hPa | 0 mm | 0.45 m/s, 331° | 2 W/m² | - |
| 1778022316 | 15.56° C | 75% | 1004.7 hPa | 0 mm | 0.89 m/s, 287° | 0 W/m² | - |
| 1778022012 | 15° C | 76% | 1003.9 hPa | 0 mm | 0.89 m/s, 291° | 2 W/m² | - |
| 1778021709 | 15° C | 75% | 1003.1 hPa | 0 mm | 1.34 m/s, 313° | 9 W/m² | - |
| 1778021405 | 15.56° C | 75% | 1003.1 hPa | 0 mm | 2.68 m/s, 71° | 22 W/m² | - |
| 1778021102 | 15° C | 75% | 1002.9 hPa | 0 mm | 2.68 m/s, 30° | 22 W/m² | - |
| 1778020799 | 15° C | 76% | 1002.7 hPa | 0 mm | 2.68 m/s, 294° | 18 W/m² | - |
| 1778020496 | 15° C | 76% | 1002.7 hPa | 0 mm | 1.34 m/s, 63° | 21 W/m² | - |
| 1778020193 | 15° C | 75% | 1002.8 hPa | 0 mm | 2.68 m/s, 266° | 23 W/m² | - |
| 1778019889 | 15° C | 75% | 1002.6 hPa | 0 mm | 4.47 m/s, 27° | 29 W/m² | - |
| 1778019584 | 15° C | 75% | 1002.6 hPa | 0 mm | 2.68 m/s, 65° | 31 W/m² | - |
| 1778019282 | 15° C | 75% | 1002.7 hPa | 0 mm | 3.58 m/s, 74° | 34 W/m² | - |
| 1778018979 | 15° C | 75% | 1002.5 hPa | 0 mm | 5.81 m/s, 81° | 37 W/m² | - |
| 1778018676 | 15° C | 75% | 1002.6 hPa | 0 mm | 2.24 m/s, 284° | 37 W/m² | - |
| 1778018374 | 15.56° C | 75% | 1002.3 hPa | 0 mm | 1.34 m/s, 7° | 37 W/m² | - |
* Rain latest hour (hover to see other rain measurements)
** Current wind speed in m/s (hover to see current wind gust speed)